Weather in Hryhorivka

Ukraine / Dnipropetrovsk Region     48°00′55″N   34°45′33″E
temp.,
°C
wind,
m/s
gust,
m/s
humid.,
%
clouds,
%
prec.,
mm/h
press.,
hPa
HPBL,
m
20 january, wed
wed2023:00−14wnw229399 0.0 102362
02:00−15wnw229355 0.0 102421
05:00−16nw11920 0.0 102420
08:00−15sse00910 0.0 102520
11:00−12s11780 0.0 1027326
14:00−10s22745 0.0 1025454
17:00−12sse238924 0.0 102722
20:00−13ese349512 0.0 102780
21 january, thu
thu2123:00−14se34920 0.0 102884
02:00−14se33920 0.0 102850
05:00−13se34900 0.0 102775
08:00−12se46940 0.0 1028123
11:00−5sse589134 0.0 1027331
14:00−2s599364 0.1 1025402
17:00−1s51096100 0.0 1025334
20:00−2s5109495 0.1 1025281
22 january, fri
fri2223:00−3s499654 0.0 1024186
02:00−2s5109745 0.0 1023188
05:000ssw5119882 0.0 1022279
08:00+2ssw6139891 0.0 1023366
11:00+3ssw61310094 0.0 1022396
14:00+4s6139797 0.1 1020460
17:00+2s6129361 0.0 1020277
20:00+3s6139473 0.1 1019352
23 january, sat
sat2323:00+3s61296100 0.0 1019313
02:00+3s7149398 0.0 1018373
05:00+3s6139295 0.0 1017362
08:00+3s6139097 0.0 1018341
11:00+4s71489100 0.0 1017395
14:00+5s71490100 0.0 1015414
17:00+5s61393100 0.0 1015335
20:00+5s61393100 0.0 1015351
24 january, sun
sun2423:00+4s71589100 0.0 1015413
02:00+4s71786100 0.0 1015379
05:00+4sse6148496 0.0 1014272
08:00+5sse7138298 0.0 1014246
11:00+7sse91578100 0.0 1013446
14:00+6se71286100 0.5 1012290
17:00+6sse81682100 0.0 1011391
20:00+5sse91689100 1.0 1010396